Regional Weather Roundup
Issued by NWS Jackson, KY

Home | Current Version | Previous Version | Text Only | Print | Product List | Glossary Off
Versions: 1 2 3 4 5 6 7 8 9 10 11 12 13 14 15 16 17 18 19 20 21 22 23 24 25 26 27 28 29 30 31 32 33 34 35 36 37 38 39 40 41 42 43 44 45 46 47 48 49 50

000
ASUS43 KJKL 301919
RWRJKL

EAST KENTUCKY HOURLY WEATHER ROUNDUP
NATIONAL WEATHER SERVICE JACKSON KY
200 PM EST FRI JAN 30 2015

NOTE: "FAIR" INDICATES FEW OR NO CLOUDS BELOW 12,000 FEET WITH
NO SIGNIFICANT WEATHER AND/OR OBSTRUCTIONS TO VISIBILITY.

* THESE REPORTS ARE NOT UNDER NWS QUALITY CONTROL AND MAY NOT
  REPORT WEATHER SUCH AS PRECIPITATION AND FOG.

KYZ079-080-083-085-087-088-110-112-115-119-120-302000
...EASTERN KENTUCKY...

CITY           SKY/WX    TMP DP  RH WIND       PRES   REMARKS
JACKSON        MOSUNNY   33  16  49 VRB7G17   30.36S WCI  27
LONDON         MOSUNNY   38  17  42 NW14G21   30.37F WCI  30
SOMERSET*      PTSUNNY   36  21  55 NW10      30.41F WCI  28
MONTICELLO*    MOSUNNY   39  22  51 N14       30.42F WCI  31
MIDDLESBORO*   CLOUDY    38  20  49 NW10G20   30.36F WCI  30
HARLAN APT*    CLOUDY    36  21  55 NW14G23   30.33S WCI  27
BLACK MTN*       N/A     21  21 100 NW3         N/A
BIG SANDY*     MOCLDY    33  15  49 N9G16     30.35S WCI  25
MOREHEAD APT*  PTCLDY    30  14  51 N9G16     30.42F WCI  22
ASHLAND*       CLOUDY    28  18  64 N9        30.41R WCI  20
$$

KYZ035-036-041-042-044-050-067-078-099-302000
...CENTRAL KENTUCKY...

CITY           SKY/WX    TMP DP  RH WIND       PRES   REMARKS
MT STERLING*   PTSUNNY   32  18  55 N6G17     30.42F WCI  26
FLEMING/MASON* MOSUNNY   29  14  53 NW10      30.43F WCI  19
DANVILLE*      MOSUNNY   34  19  55 N12       30.42F WCI  25
RICHMOND*      MOSUNNY   34  18  51 NW12      30.40F WCI  25
LEXINGTON      MOSUNNY   35  15  44 NW9       30.42F WCI  28
FRANKFORT      MOSUNNY   35  15  44 NW8       30.42F WCI  29
$$

KYZ091>093-OHZ055-061-077-WVZ005-015-034-035-042-302000
...SOUTHERN OHIO/WEST VIRGINIA...

CITY           SKY/WX    TMP DP  RH WIND       PRES   REMARKS
COVINGTON      PTSUNNY   29  14  53 N10       30.44S WCI  20
COLUMBUS       MOSUNNY   22   9  57 NW15      30.40S WCI   9
DAYTON         CLOUDY    25  12  58 N12       30.43F WCI  14
WILMINGTON     PTSUNNY   26  12  55 NW9       30.41S WCI  17
HUNTINGTON     PTSUNNY   31  14  49 NW8G17    30.39S WCI  23
CHARLESTON     PTSUNNY   27  13  55 W13G20    30.35S WCI  16
PINEVILLE*     MOSUNNY   32  17  53 MISG      30.32R
BECKLEY        CLOUDY    22  10  60 NW17G25   30.20R WCI   8
BLUEFIELD      LGT SNOW  26  14  60 NW23G37   30.17R WCI  11
$$

VAZ002-007-008-TNZ017-027-036-066-071-302000
...SOUTHWEST VIRGINIA/EAST TENNESSEE...

CITY           SKY/WX    TMP DP  RH WIND       PRES   REMARKS
WISE*          CLOUDY    30  19  64 NW10G23   30.25S WCI  21
JONESVILLE*    MOCLDY    37  18  44 NW13      30.34F WCI  29
ABINGDON*      CLOUDY    34  21  59 N13G22    30.25R WCI  25
BRISTOL        PTSUNNY   39  18  42 W17G26    30.28S WCI  30
KNOXVILLE      PTSUNNY   41  20  43 NW9G18    30.36F
OAK RIDGE      PTSUNNY   42  20  41 N7G17     30.38F
CROSSVILLE     MOSUNNY   36  19  50 N12G18    30.34F WCI  28
NASHVILLE      MOSUNNY   45  20  36 N8        30.44F
$$

...KEY TO REMARKS...
VSB - VISIBILITY IN MILES
WCI - WIND CHILL INDEX
HX  - HEAT INDEX

$$


USA.gov is the U.S. government's official web portal to all federal, state and local government web resources and services.